sat.trackr.live / text

‹ back to catalog

STARLINK-6144

NORAD 56894 · 2023-083U

PAYLOAD ACTIVE UNKNOWN

§ Identity

Operator
Country
US
Launch date
2023-06-12
Launch site
AFETR
Launch vehicle
Mass (kg)
RCS (m²)

Purposes: comms

External: N2YO · Heavens-Above · Gunter

§ Orbital elements

Epoch: 2026-05-25T00:26:42.597312Z

Period
94.27 min
Inclination
43.0045°
Eccentricity
0.0001080
Mean motion
15.27574751 rev/d
Perigee alt
482.3 km
Apogee alt
483.8 km
Semi-major
6,861.2 km
B*
-1.0355e-5
RAAN
17.5607°
Arg perigee
263.4033°
Mean anomaly
96.6696°
Rev number
16,338

§ Raw data

STARLINK-61441 56894U 23083U   26145.01854858 -.00000547  00000+0 -10355-4 0  99902 56894  43.0045  17.5607 0001080 263.4033  96.6696 15.27574751163383

JSON: /api/v1/satellites/56894 · /tle

For live sub-satellite position, see the globe view (requires WebGL).

§ Visibility from observer

Set your observer location to see the next 7 days of passes ≥ 10°. The values pass through the URL so the page stays shareable.

No JS? Fill the form by hand. The geolocation button needs JavaScript.